TimePDT,TemperatureF,Dew PointF,Humidity,Sea Level PressureIn,VisibilityMPH,Wind Direction,Wind SpeedMPH,Gust SpeedMPH,PrecipitationIn,Events,Conditions,WindDirDegrees,DateUTC
12:53 AM,46.0,35.1,66,30.04,10.0,Calm,Calm,-,N/A,,Clear,0,2013-09-19 07:53:00
1:53 AM,44.1,33.1,65,30.04,10.0,Calm,Calm,-,N/A,,Clear,0,2013-09-19 08:53:00
2:53 AM,42.1,32.0,67,30.04,10.0,Calm,Calm,-,N/A,,Clear,0,2013-09-19 09:53:00
3:53 AM,41.0,32.0,70,30.03,10.0,SE,3.5,-,N/A,,Clear,130,2013-09-19 10:53:00
4:53 AM,42.1,33.1,70,30.02,10.0,Calm,Calm,-,N/A,,Clear,0,2013-09-19 11:53:00
5:53 AM,37.9,30.0,73,30.02,10.0,Calm,Calm,-,N/A,,Clear,0,2013-09-19 12:53:00
6:53 AM,34.0,28.0,79,30.05,10.0,Calm,Calm,-,N/A,,Clear,0,2013-09-19 13:53:00
7:53 AM,42.1,34.0,73,30.05,10.0,Calm,Calm,-,N/A,,Clear,0,2013-09-19 14:53:00
8:53 AM,48.9,36.0,61,30.04,10.0,Calm,Calm,-,N/A,,Clear,0,2013-09-19 15:53:00
9:53 AM,55.9,37.9,51,30.03,10.0,Calm,Calm,-,N/A,,Clear,0,2013-09-19 16:53:00
10:53 AM,61.0,37.0,41,30.01,10.0,Calm,Calm,-,N/A,,Clear,0,2013-09-19 17:53:00
11:53 AM,68.0,36.0,31,29.98,10.0,Calm,Calm,-,N/A,,Clear,0,2013-09-19 18:53:00
12:53 PM,72.0,35.1,26,29.96,10.0,WNW,3.5,-,N/A,,Clear,290,2013-09-19 19:53:00
1:53 PM,77.0,30.9,19,29.92,10.0,Calm,Calm,-,N/A,,Clear,0,2013-09-19 20:53:00
2:53 PM,79.0,30.0,17,29.88,10.0,WNW,3.5,-,N/A,,Clear,290,2013-09-19 21:53:00
3:53 PM,81.0,28.0,14,29.86,10.0,Calm,Calm,-,N/A,,Clear,0,2013-09-19 22:53:00
4:53 PM,82.0,17.1,9,29.83,10.0,Calm,Calm,-,N/A,,Clear,0,2013-09-19 23:53:00
5:53 PM,82.9,19.9,10,29.81,10.0,Calm,Calm,-,N/A,,Clear,0,2013-09-20 00:53:00
6:53 PM,81.0,23.0,12,29.82,10.0,Calm,Calm,-,N/A,,Clear,0,2013-09-20 01:53:00
7:53 PM,66.0,26.1,22,29.83,10.0,Variable,3.5,-,N/A,,Clear,0,2013-09-20 02:53:00
8:53 PM,66.9,30.0,25,29.85,10.0,NE,8.1,-,N/A,,Clear,50,2013-09-20 03:53:00
9:53 PM,63.0,30.0,29,29.84,10.0,NNE,4.6,-,N/A,,Clear,20,2013-09-20 04:53:00
10:53 PM,55.9,28.9,36,29.85,10.0,Calm,Calm,-,N/A,,Clear,0,2013-09-20 05:53:00
11:53 PM,51.1,28.9,43,29.84,10.0,North,4.6,-,N/A,,Clear,10,2013-09-20 06:53:00